Temperature
23 23 22 23 24 24 23 23 24 24 25 26 26 26 27 27 26 26 26 26 25 25 24 23 22 21 20 19 19 19 18 17 16 16 16 15 15 15 14 14 14 13 13 13
23 23 24 24 24 24 23 24 24 24 25 26 26 27 28 28 27 27 27 26 26 25 24 23 22 21 20 19 19 19 18 17 16 16 15 15 15 15 15 14 14 13 13 13
24 24 25 25 24 25 25 24 24 24 25 26 27 26 27 28 28 27 27 27 26 26 24 23 22 21 20 19 19 19 18 17 16 15 15 15 15 15 14 14 14 13 13 13
24 25 25 25 25 25 24 25 25 25 25 25 26 25 27 28 27 27 27 27 26 26 25 23 22 21 20 19 19 19 18 17 16 15 15 15 14 14 14 14 14 14 13 13
24 25 25 25 25 26 25 25 26 26 25 25 26 26 27 27 26 27 27 27 26 26 25 24 22 21 20 19 19 18 18 17 16 15 15 14 14 14 14 14 14 14 14 13
26 27 27 26 27 27 26 26 26 26 26 24 26 26 26 27 27 27 27 27 26 26 25 24 22 21 20 19 18 18 17 16 15 15 15 14 14 14 14 14 14 14 14 14
25 26 27 27 26 26 26 25 24 24 23 24 26 26 26 27 28 28 27 27 26 25 24 23 22 21 20 19 18 17 17 16 15 15 15 15 15 15 15 14 14 14 14 14
25 25 26 27 26 26 26 26 23 22 22 23 25 26 27 28 28 27 27 27 26 25 24 23 22 21 20 19 18 17 17 16 15 15 15 15 15 15 15 14 14 14 14 14
26 25 27 27 27 27 26 26 27 25 25 25 26 27 27 28 27 27 27 27 26 25 24 23 22 20 19 18 18 17 17 16 16 15 15 15 15 15 15 14 14 14 14 14
27 25 26 27 27 27 26 26 26 25 24 23 25 26 25 26 26 27 27 26 26 25 24 23 22 20 19 19 18 17 17 16 16 16 15 15 15 15 15 14 14 14 14 14
27 26 26 26 25 26 26 26 26 25 25 24 23 24 27 26 26 26 26 26 26 25 24 23 22 21 20 19 18 17 17 16 16 16 16 15 15 15 15 15 14 14 14 14
27 26 25 26 27 28 27 26 26 24 24 24 24 25 27 27 27 27 27 26 26 25 24 23 22 21 20 19 18 17 17 17 16 16 16 15 15 15 15 15 15 15 15 15
25 25 24 24 24 26 26 26 26 25 25 24 23 25 27 27 27 27 27 26 26 25 24 23 22 21 20 19 18 18 17 17 17 16 16 16 16 15 15 15 15 15 15 15
24 25 25 23 24 25 25 26 26 25 24 24 24 25 26 27 26 27 27 26 26 25 24 23 22 21 20 19 19 18 18 17 17 16 16 16 16 16 16 16 16 15 15 15
26 25 25 26 26 26 26 26 26 25 25 24 25 25 26 26 26 27 27 26 26 25 24 23 22 21 20 20 19 19 18 18 17 16 16 16 16 16 16 16 16 15 15 15
26 25 25 25 26 26 26 26 26 26 26 25 25 25 26 26 26 26 26 26 25 25 24 23 23 22 21 20 19 19 19 18 17 17 16 16 16 16 16 16 16 15 15 15
24 24 23 24 25 25 25 26 26 26 26 25 24 24 25 25 25 25 25 24 24 24 24 24 23 22 21 21 20 19 19 18 17 17 17 16 16 16 16 16 15 15 15 15
24 23 23 23 23 22 25 27 27 26 25 25 25 24 24 24 24 24 24 23 23 24 23 23 23 22 22 21 21 20 19 19 18 17 17 17 17 16 16 16 16 16 15 15
25 24 23 23 22 23 25 26 26 25 24 24 24 24 23 23 24 24 22 22 22 23 23 23 23 22 22 22 21 20 20 19 18 18 17 17 17 16 16 16 16 16 15 15
25 24 23 22 22 22 24 25 25 25 23 23 23 22 22 22 21 21 21 21 21 22 22 22 22 22 22 22 22 21 20 20 19 18 18 17 17 17 16 16 16 16 15 15
23 23 22 22 22 23 23 24 24 22 21 21 21 21 21 20 20 20 20 20 20 21 21 22 22 22 22 22 22 21 21 20 20 19 18 18 17 17 17 16 16 16 15 15
22 22 22 22 21 22 22 22 21 20 21 20 19 19 19 19 19 19 19 19 20 20 20 21 21 21 21 21 21 21 21 21 20 19 19 18 17 17 17 16 16 16 15 15
22 22 22 22 22 22 21 21 20 19 19 19 18 18 18 18 18 18 18 18 19 19 19 20 20 20 21 21 21 21 21 21 20 19 19 18 17 17 17 16 16 16 15 15
21 22 21 21 22 22 21 20 19 18 18 18 17 17 17 17 17 17 17 17 17 18 18 19 19 19 20 20 20 20 20 20 20 19 18 18 17 17 16 16 16 15 15 14
19 19 19 19 20 20 20 18 18 17 17 16 16 16 16 16 16 16 16 16 16 16 17 17 18 18 19 19 19 19 20 20 19 19 18 17 17 17 16 16 15 15 15 15
18 18 18 18 19 18 18 17 16 16 15 15 15 15 15 15 15 15 15 15 15 15 15 16 17 17 18 18 19 19 19 19 19 18 18 17 17 16 16 16 15 15 15 14
Wind_Speed
10 8 8 10 9 3 2 5 4 1 3 5 7 8 7 9 10 10 9 10 10 10 10 10 10 9 9 7 3 5 5 5 4 2 2 3 2 1 3 2 3 4 6 7
9 11 11 7 6 6 6 7 4 3 4 7 8 9 8 8 10 10 10 10 10 10 10 11 11 10 9 8 5 5 6 6 6 3 1 1 2 1 3 1 3 4 6 6
9 7 8 7 6 6 6 4 3 3 7 10 9 9 8 6 7 6 6 6 8 11 13 14 11 10 9 8 6 3 7 7 6 4 2 3 2 2 2 1 2 2 3 4
4 4 6 5 4 6 3 4 5 7 7 5 6 6 5 6 7 7 6 5 5 7 10 12 12 10 9 9 6 4 8 6 6 5 4 1 1 1 1 1 2 1 3 3
4 5 6 5 4 4 1 3 8 9 9 10 9 6 2 6 6 7 8 8 6 6 9 10 11 11 9 8 7 4 7 7 7 4 5 1 1 1 1 1 2 1 3 3
3 4 3 2 2 2 3 7 12 11 9 8 5 3 3 3 4 3 6 8 8 7 9 10 10 10 9 8 8 6 7 6 7 4 4 4 2 2 1 0 1 2 1 2
5 6 4 1 3 5 6 7 4 4 2 4 5 4 1 7 7 4 2 4 8 7 9 10 11 11 10 10 9 8 8 7 7 5 4 5 4 2 1 1 1 1 1 2
4 6 8 6 6 3 5 7 3 3 3 6 6 3 4 10 7 4 2 1 5 8 8 10 11 11 10 10 9 9 9 8 7 6 5 3 4 2 1 2 1 0 1 2
2 3 6 5 4 5 4 4 6 6 9 8 4 2 5 8 6 4 3 2 3 7 8 9 11 11 11 10 10 9 9 8 8 7 5 4 3 3 2 1 1 1 0 1
4 1 5 4 3 6 7 6 5 4 5 5 6 4 4 6 5 3 3 3 4 5 8 9 10 10 10 10 10 9 9 8 8 7 6 4 3 3 3 1 0 2 1 2
6 3 3 5 6 7 7 6 6 5 6 5 5 3 2 5 4 2 1 3 5 7 8 8 9 10 10 11 10 10 9 8 7 7 6 5 4 3 4 3 2 2 3 2
6 5 4 5 3 2 4 6 6 5 6 7 7 4 6 5 2 2 2 2 5 7 8 9 10 10 10 11 11 10 10 9 8 7 6 6 6 5 4 5 5 4 2 1
8 6 5 2 2 3 5 7 7 7 8 8 8 5 3 3 4 3 3 4 5 7 8 9 9 10 10 10 11 10 10 9 9 7 7 7 7 7 6 5 5 3 2 1
4 9 10 8 6 4 6 8 7 8 7 10 11 11 7 6 6 4 3 4 4 7 8 9 10 10 10 10 11 11 10 10 10 8 7 7 7 7 5 4 5 4 4 3
5 10 13 13 11 10 12 12 11 11 12 13 14 12 10 9 9 7 5 3 3 4 7 9 10 10 10 11 11 11 11 10 10 10 8 7 6 6 5 4 4 2 2 3
7 10 13 15 15 14 15 14 14 14 13 12 12 10 8 8 8 9 8 6 4 3 4 7 10 11 12 12 11 10 11 11 10 10 9 8 7 6 6 6 6 5 4 3
10 13 14 14 15 15 14 14 11 7 6 7 8 7 9 10 10 9 7 7 6 4 3 5 8 10 11 13 13 12 11 12 11 10 10 9 8 7 7 6 5 5 4 4
14 13 9 12 14 14 9 6 4 2 4 5 5 8 9 10 10 5 7 8 8 6 4 3 5 8 9 11 13 12 11 12 12 11 10 10 9 8 7 6 5 5 5 5
14 11 9 10 13 12 10 8 7 4 3 8 8 10 12 12 10 7 15 12 10 8 5 3 4 6 8 10 12 13 12 12 12 11 10 10 10 8 8 7 6 5 4 4
7 8 8 9 12 13 7 9 8 5 1 10 10 11 13 13 9 10 15 14 12 11 8 3 2 4 7 8 9 12 12 12 12 11 10 10 10 9 8 7 6 4 4 3
4 6 9 11 13 9 7 8 7 3 5 10 11 11 12 10 10 12 14 13 12 10 9 6 3 3 4 6 8 10 11 12 11 11 10 10 9 9 8 7 5 4 3 3
10 7 8 9 11 4 10 7 6 7 8 10 11 12 12 12 13 13 13 13 13 11 9 7 5 4 2 4 6 8 9 10 11 11 10 10 9 8 8 7 5 4 4 4
7 6 5 6 6 4 5 5 5 7 9 10 10 11 12 13 13 14 13 12 12 12 10 8 6 5 3 3 5 7 7 8 11 12 11 10 9 7 7 8 6 5 4 4
12 12 11 10 9 10 9 7 7 7 9 9 10 12 13 13 14 14 13 12 11 12 11 9 7 6 5 4 5 5 5 9 12 12 11 10 9 8 7 6 5 4 4 3
12 12 13 16 14 13 8 9 11 12 11 12 12 12 13 13 14 13 12 11 11 11 11 10 8 7 7 5 5 6 6 9 11 11 11 10 9 9 8 5 4 4 3 3
15 15 14 14 12 11 11 13 14 13 13 13 13 13 13 13 13 13 12 10 11 12 12 12 10 9 8 7 6 6 7 9 11 11 11 9 9 9 9 9 7 11 8 10
Wind_Direction
181 189 205 211 209 224 326 266 255 223 246 247 259 265 245 199 201 203 207 203 199 190 174 154 140 131 133 134 159 132 145 131 109 57 15 51 59 7 71 52 58 355 3 6
182 209 208 202 216 214 237 267 302 25 301 280 271 265 250 216 205 206 209 206 197 181 160 145 148 152 154 149 186 179 136 101 94 94 10 125 101 334 105 29 66 27 20 12
190 210 203 192 217 236 256 289 337 321 284 275 278 269 248 204 192 189 209 224 205 180 168 159 160 155 152 156 181 170 114 124 122 121 53 29 44 336 69 50 79 48 40 29
203 207 189 190 219 250 271 346 321 302 299 296 282 291 272 177 164 176 190 215 225 175 160 156 157 152 164 163 167 165 131 121 103 108 84 31 87 21 60 18 91 79 96 62
189 186 194 201 219 254 297 296 287 283 283 282 275 279 299 143 162 178 176 187 201 174 155 153 155 156 161 152 145 132 112 115 116 115 133 243 59 355 39 29 85 333 123 108
155 174 190 214 203 286 290 279 270 256 258 272 289 292 300 117 104 109 154 172 177 174 156 149 143 143 143 138 135 134 126 130 132 155 175 171 151 225 215 132 54 317 143 123
179 183 177 232 236 216 246 273 307 318 287 312 308 273 248 89 83 59 83 159 163 158 153 149 144 148 150 149 149 150 146 151 157 182 208 181 179 233 188 86 102 323 17 87
196 185 179 195 244 259 245 263 278 320 314 292 284 280 96 101 102 102 120 177 155 154 158 155 154 156 157 158 159 163 162 167 171 186 206 188 161 203 121 97 305 273 63 86
328 132 149 170 246 286 281 278 296 284 284 291 311 327 110 109 112 118 140 149 158 155 153 157 157 161 163 164 165 171 166 176 176 185 194 186 188 169 146 201 246 301 104 91
324 120 170 163 227 243 277 310 311 299 309 312 311 331 59 74 66 87 128 162 174 159 161 164 161 164 165 164 168 176 177 183 177 183 192 180 181 162 150 266 74 357 359 105
307 303 197 186 218 233 215 246 262 277 279 294 311 328 54 78 63 36 216 178 170 171 171 167 163 167 165 163 168 179 183 185 176 180 181 170 175 193 184 190 159 226 264 227
323 302 271 247 244 308 288 276 281 290 300 306 301 307 98 111 148 211 238 202 176 171 170 167 165 169 170 171 176 184 183 179 174 178 177 184 181 183 211 188 184 215 227 325
344 310 315 347 341 300 270 262 272 284 289 287 288 293 154 208 220 210 220 210 188 175 173 169 169 175 177 177 179 181 183 175 169 175 188 193 181 186 207 188 171 197 183 225
294 286 293 291 283 269 273 270 266 270 277 282 285 295 306 313 324 316 266 226 211 188 182 179 176 180 181 180 185 181 185 173 169 174 194 198 188 187 196 188 165 190 183 187
275 286 298 304 303 287 281 277 271 266 269 276 285 294 310 320 321 323 316 293 249 209 186 184 181 184 185 182 190 187 181 174 173 174 191 200 193 182 181 167 157 187 216 204
297 295 299 295 294 291 286 278 269 267 271 277 286 295 318 330 339 341 340 331 302 262 208 193 189 190 189 186 190 192 175 172 172 177 186 190 196 182 177 180 178 192 214 234
290 294 299 297 302 298 286 283 280 280 304 314 314 334 350 350 345 341 345 338 324 306 263 209 197 198 195 189 189 196 182 174 178 182 184 183 192 186 179 186 185 192 206 224
262 273 283 289 294 285 291 314 332 332 333 358 350 3 5 351 328 351 15 355 334 322 295 240 205 196 196 191 185 190 179 174 180 186 185 179 182 183 179 182 188 197 205 213
240 253 265 273 277 280 293 328 332 316 20 27 19 12 3 351 333 21 15 1 346 329 310 271 228 205 200 199 187 184 182 181 183 186 182 176 175 177 178 185 196 201 202 210
225 242 258 269 278 283 322 2 355 324 23 35 28 17 5 3 359 357 355 351 346 340 330 313 269 223 202 200 186 184 185 182 184 181 175 171 171 172 177 182 190 189 183 193
263 255 251 263 271 278 7 4 344 319 28 27 22 14 5 1 351 342 345 346 342 338 333 334 307 265 214 193 183 188 186 183 177 167 164 165 166 166 167 171 171 167 167 179
300 293 280 276 274 293 34 23 28 18 17 18 13 5 355 346 341 341 343 341 340 338 337 335 321 298 256 200 191 195 196 178 159 155 158 160 161 166 161 153 159 162 163 175
286 295 304 297 314 10 50 49 43 15 358 0 358 350 343 337 336 336 336 336 337 336 335 329 315 300 278 234 209 207 197 161 150 152 155 156 155 155 150 152 160 166 170 179
292 315 312 299 299 320 337 0 18 8 349 345 346 341 337 332 330 329 329 330 334 334 330 323 311 297 281 256 231 219 189 160 154 157 160 161 161 155 150 150 159 160 163 172
299 305 299 296 299 307 325 356 352 348 343 338 337 333 330 326 322 322 322 326 328 326 324 319 310 296 285 267 238 219 193 170 165 165 168 169 166 159 151 125 94 123 85 110
271 276 277 282 302 309 318 336 337 337 334 331 329 325 323 319 317 319 320 323 322 322 322 319 313 305 294 281 254 224 198 180 174 175 176 173 166 158 149 134 100 66 95 93
Height
1471 1475 1479 1477 1475 1476 1480 1483 1483 1480 1474 1475 1474 1472 1469 1469 1472 1474 1477 1479 1482 1485 1489 1492 1495 1499 1501 1503 1505 1506 1506 1505 1505 1505 1505 1504 1504 1504 1504 1503 1502 1501 1500 1499
1474 1475 1472 1470 1473 1474 1479 1481 1481 1478 1474 1472 1471 1468 1463 1464 1467 1469 1471 1474 1478 1481 1485 1489 1493 1497 1500 1502 1504 1505 1504 1504 1504 1504 1504 1504 1504 1504 1503 1503 1502 1501 1499 1498
1473 1470 1467 1470 1474 1475 1476 1479 1481 1483 1476 1469 1469 1470 1462 1458 1461 1465 1468 1471 1474 1477 1481 1486 1490 1494 1497 1500 1502 1503 1503 1503 1503 1503 1503 1503 1503 1503 1503 1502 1501 1501 1499 1498
1470 1465 1467 1470 1474 1475 1480 1474 1475 1476 1479 1479 1472 1483 1464 1456 1460 1463 1467 1470 1472 1475 1479 1483 1487 1491 1495 1498 1500 1502 1501 1502 1502 1502 1502 1502 1503 1503 1503 1502 1502 1501 1500 1499
1472 1468 1469 1472 1472 1472 1476 1472 1473 1473 1476 1478 1470 1476 1468 1457 1462 1462 1464 1468 1471 1474 1477 1481 1485 1489 1493 1495 1497 1500 1500 1500 1500 1501 1501 1502 1502 1502 1502 1502 1502 1501 1500 1499
1466 1465 1466 1469 1468 1469 1470 1472 1470 1469 1474 1486 1472 1477 1475 1460 1461 1460 1461 1465 1469 1472 1476 1480 1483 1487 1490 1493 1495 1497 1498 1499 1499 1500 1500 1501 1501 1501 1502 1502 1501 1501 1501 1500
1470 1467 1466 1468 1471 1471 1472 1480 1490 1492 1494 1492 1469 1471 1469 1456 1456 1459 1461 1463 1467 1470 1474 1478 1481 1485 1488 1490 1492 1494 1496 1497 1497 1498 1500 1500 1501 1501 1501 1501 1501 1501 1501 1500
1474 1476 1466 1467 1470 1471 1471 1475 1495 1510 1507 1494 1473 1471 1462 1453 1456 1460 1462 1464 1466 1469 1473 1476 1479 1482 1485 1488 1490 1492 1493 1495 1496 1497 1498 1499 1500 1500 1500 1500 1501 1501 1501 1500
1471 1473 1463 1464 1465 1467 1472 1473 1470 1482 1485 1486 1476 1465 1457 1453 1456 1460 1462 1464 1466 1468 1471 1474 1477 1480 1483 1485 1487 1489 1491 1493 1494 1496 1497 1498 1499 1499 1499 1500 1500 1500 1500 1500
1464 1474 1467 1466 1468 1468 1470 1471 1476 1483 1495 1499 1485 1474 1472 1463 1461 1460 1461 1464 1466 1468 1470 1473 1475 1478 1480 1482 1484 1487 1489 1491 1492 1494 1495 1497 1497 1498 1498 1498 1499 1499 1499 1499
1462 1472 1472 1470 1473 1470 1472 1474 1474 1478 1480 1494 1498 1485 1459 1460 1459 1460 1460 1462 1464 1466 1468 1471 1473 1475 1478 1480 1482 1484 1486 1489 1490 1492 1493 1495 1495 1496 1497 1497 1497 1498 1498 1498
1464 1469 1475 1470 1462 1462 1465 1469 1472 1486 1486 1482 1489 1482 1455 1456 1457 1458 1458 1459 1461 1463 1465 1468 1470 1473 1475 1477 1479 1482 1484 1486 1488 1490 1491 1493 1494 1494 1495 1496 1496 1497 1497 1498
1470 1473 1482 1485 1480 1471 1470 1468 1468 1472 1478 1483 1489 1480 1455 1455 1455 1455 1456 1457 1458 1460 1462 1464 1467 1469 1472 1474 1476 1478 1481 1483 1485 1487 1489 1491 1492 1493 1494 1495 1495 1496 1496 1497
1474 1474 1479 1488 1481 1473 1471 1468 1467 1472 1482 1482 1477 1469 1458 1454 1453 1453 1453 1454 1455 1456 1458 1461 1463 1465 1468 1470 1473 1475 1478 1480 1482 1484 1486 1488 1490 1491 1493 1494 1494 1495 1495 1496
1471 1474 1470 1466 1463 1463 1464 1465 1464 1467 1468 1473 1469 1464 1458 1454 1453 1451 1451 1451 1452 1453 1454 1456 1459 1461 1464 1467 1469 1472 1474 1477 1479 1481 1483 1485 1488 1489 1491 1492 1492 1493 1494 1495
1470 1473 1472 1470 1463 1460 1461 1458 1457 1459 1459 1460 1460 1459 1453 1452 1452 1451 1450 1450 1450 1450 1451 1453 1455 1457 1460 1462 1465 1468 1470 1472 1475 1478 1480 1482 1485 1486 1488 1489 1490 1491 1492 1493
1474 1475 1478 1477 1466 1464 1467 1455 1452 1452 1452 1456 1461 1459 1453 1453 1452 1452 1451 1450 1450 1449 1449 1449 1451 1452 1455 1457 1460 1463 1466 1469 1471 1474 1476 1479 1481 1483 1485 1486 1487 1488 1489 1490
1473 1475 1476 1477 1475 1483 1461 1445 1446 1451 1453 1453 1455 1455 1455 1455 1453 1453 1452 1451 1449 1448 1446 1446 1447 1448 1451 1453 1456 1459 1463 1465 1467 1470 1473 1475 1477 1480 1482 1483 1484 1485 1486 1487
1464 1470 1475 1477 1479 1470 1455 1448 1448 1451 1456 1456 1457 1458 1457 1455 1452 1452 1452 1451 1449 1447 1445 1444 1444 1445 1447 1449 1452 1455 1458 1461 1463 1466 1469 1471 1473 1476 1478 1479 1481 1482 1483 1484
1460 1463 1471 1474 1480 1479 1463 1452 1449 1452 1461 1460 1460 1461 1461 1458 1458 1457 1454 1452 1449 1446 1444 1442 1441 1442 1444 1446 1448 1451 1453 1456 1459 1461 1464 1467 1469 1472 1474 1475 1477 1479 1479 1480
1466 1467 1472 1474 1475 1465 1459 1455 1453 1465 1471 1465 1464 1465 1465 1464 1464 1461 1457 1453 1450 1446 1443 1441 1440 1440 1441 1442 1445 1447 1449 1451 1454 1457 1460 1463 1466 1468 1470 1472 1473 1475 1476 1476
1469 1470 1469 1468 1472 1471 1462 1460 1465 1470 1467 1467 1467 1467 1467 1465 1463 1460 1457 1454 1450 1446 1443 1441 1439 1439 1439 1440 1441 1443 1445 1448 1450 1453 1456 1459 1461 1464 1466 1468 1469 1471 1472 1473
1465 1465 1465 1466 1467 1463 1463 1465 1468 1468 1468 1468 1468 1468 1467 1465 1462 1460 1457 1453 1450 1447 1444 1441 1439 1438 1437 1437 1439 1440 1442 1444 1445 1448 1451 1454 1457 1459 1461 1463 1465 1466 1467 1468
1467 1464 1465 1464 1461 1461 1463 1465 1466 1467 1468 1468 1468 1467 1466 1464 1461 1458 1456 1452 1449 1446 1443 1440 1438 1436 1435 1435 1436 1437 1438 1440 1441 1443 1446 1449 1452 1454 1456 1459 1460 1462 1463 1464
1473 1471 1469 1467 1464 1463 1463 1465 1466 1466 1466 1466 1466 1465 1464 1462 1459 1457 1453 1451 1448 1444 1441 1439 1436 1434 1433 1432 1432 1433 1434 1435 1436 1438 1440 1443 1446 1448 1451 1453 1455 1456 1458 1459
1472 1471 1469 1467 1465 1466 1465 1465 1465 1465 1465 1465 1464 1462 1461 1459 1456 1453 1451 1448 1445 1442 1439 1436 1433 1431 1429 1428 1427 1427 1429 1430 1431 1432 1435 1437 1440 1442 1445 1447 1449 1451 1454 1455